Stations météo

Publicité
La Rochelle/Ile de Re, France (7316): Température de l'air & dewpoint: 11.11.2017 18:00:00 - 17.11.2017 18:00:00 (CET)La Rochelle/Ile de Re, France (7316): Vitesse du vent & gusts: 11.11.2017 18:00:00 - 17.11.2017 18:00:00 (CET)La Rochelle/Ile de Re, France (7316): Direction du vent: 11.11.2017 18:00:00 - 17.11.2017 18:00:00 (CET)La Rochelle/Ile de Re, France (7316): reduced air pressure: 11.11.2017 18:00:00 - 17.11.2017 18:00:00 (CET)La Rochelle/Ile de Re, France (7316): visibility: 11.11.2017 18:00:00 - 17.11.2017 18:00:00 (CET)La Rochelle/Ile de Re, France (7316): Ensoleillement: 11.11.2017 18:00:00 - 17.11.2017 18:00:00 (CET)La Rochelle/Ile de Re, France (7316): Quantités de précipitations: 11.11.2017 18:00:00 - 17.11.2017 18:00:00 (CET)
Date & Time tt [°C] td [°C] ff [km/h] ff [knt] fx [km/h] fx [knt] dd ppp [hPa] vv [km] sd [min] rr [mm]
17.11.2017 18:00:00 9,1 3,9 11 6 27 15 NE 1025,2 10 5 0,0
17.11.2017 17:00:00 11,5 4,0 21 11 31 17 NE 1024,9 10 60 0,0
17.11.2017 16:00:00 12,8 3,7 15 8 25 14 NE 1024,7 10 60 0,0
17.11.2017 15:00:00 13,0 3,6 18 10 27 15 NE 1024,8 10 60 0,0
17.11.2017 14:00:00 13,0 4,2 16 9 27 15 ENE 1024,9 10 60 0,0
17.11.2017 13:00:00 12,1 4,1 17 9 26 14 ENE 1025,2 13 60 0,0
17.11.2017 12:00:00 10,3 3,8 16 9 28 15 NE 1025,9 10 60 0,0
17.11.2017 11:00:00 8,2 3,6 21 11 28 15 NE 1026,0 10 60 0,0
17.11.2017 10:00:00 6,4 3,2 18 10 25 13 NE 1025,9 9 46 0,0
17.11.2017 09:00:00 4,8 3,1 11 6 18 10 NE 1025,9 10 13 0,0
17.11.2017 08:00:00 4,1 2,8 9 5 19 11 NNE 1025,7 7 0 0,0
17.11.2017 07:00:00 4,6 3,4 11 6 17 9 NNE 1025,4 8 0 0,0
17.11.2017 06:00:00 4,6 2,6 8 4 14 7 E 1024,6 10 0 0,0
17.11.2017 05:00:00 5,5 3,2 9 5 19 10 ENE 1024,9 16 0 0,0
17.11.2017 04:00:00 6,0 3,2 15 8 26 14 E 1024,9 10 0 0,0
17.11.2017 03:00:00 5,6 3,3 15 8 18 10 NE 1025,4 10 0 0,0
17.11.2017 02:00:00 5,3 3,0 10 5 16 9 NE 1025,4 14 0 0,0
17.11.2017 01:00:00 6,1 3,8 11 6 17 9 NNE 1025,2 10 0 0,0
17.11.2017 00:00:00 6,3 3,6 9 5 17 9 NNE 1025,1 10 0 0,0
16.11.2017 23:00:00 8,3 4,1 13 7 20 11 ENE 1024,7 10 0 0,0
16.11.2017 22:00:00 8,9 4,1 13 7 21 12 E 1024,5 10 0 0,0
16.11.2017 21:00:00 9,3 4,1 15 8 23 12 E 1024,4 10 0 0,0
16.11.2017 20:00:00 10,3 4,4 18 10 26 14 ENE 1024,3 10 0 0,0
16.11.2017 19:00:00 10,3 4,4 9 5 13 7 NE 1024,0 29 0 0,0
16.11.2017 18:00:00 11,0 3,5 8 4 11 6 E 1023,7 10 0 0,0
16.11.2017 17:00:00 12,2 3,7 9 5 12 7 ENE 1023,3 54 17 0,0
16.11.2017 16:00:00 13,7 3,5 9 5 18 10 NE 1023,1 10 44 0,0
16.11.2017 15:00:00 13,9 3,1 10 5 18 10 ENE 1023,1 23 57 0,0
16.11.2017 14:00:00 12,7 3,1 10 5 15 8 ENE 1023,3 51 55 0,0
16.11.2017 13:00:00 11,5 3,8 9 5 15 8 ENE 1023,2 10 60 0,0
16.11.2017 12:00:00 9,1 3,3 9 5 13 7 ENE 1023,6 10 60 0,0
16.11.2017 11:00:00 6,9 2,8 9 5 14 8 E 1023,9 10 49 0,0
16.11.2017 10:00:00 5,3 2,6 9 5 13 7 ENE 1024,0 10 60 0,0
16.11.2017 09:00:00 3,5 2,3 4 2 14 8 - 1023,3 10 28 0,0
16.11.2017 08:00:00 2,5 1,3 5 3 16 9 E 1022,5 10 0 0,0
16.11.2017 07:00:00 2,8 1,6 9 5 19 10 NE 1022,4 11 0 0,0
16.11.2017 06:00:00 4,0 2,5 11 6 28 15 E 1021,9 10 - 0,0
16.11.2017 05:00:00 4,6 2,9 18 10 29 15 E 1021,7 10 0 0,0
16.11.2017 04:00:00 4,1 2,6 13 7 26 14 ENE 1022,1 10 0 0,0
16.11.2017 03:00:00 4,8 3,0 18 10 25 14 E 1022,2 10 0 0,0
16.11.2017 02:00:00 4,0 2,3 9 5 19 11 ENE 1022,5 10 0 0,0
16.11.2017 01:00:00 5,4 3,2 16 9 24 13 ENE 1022,8 10 0 0,0
16.11.2017 00:00:00 5,5 3,0 15 8 20 11 ENE 1023,2 10 0 0,0
15.11.2017 23:00:00 6,3 3,1 15 8 26 14 ENE 1023,3 10 0 0,0
15.11.2017 22:00:00 7,2 3,4 18 10 29 16 ENE 1023,3 10 0 0,0
15.11.2017 21:00:00 7,5 3,7 16 9 26 14 ENE 1023,2 10 0 0,0
15.11.2017 20:00:00 7,7 3,5 18 10 25 14 ENE 1023,4 10 0 0,0
15.11.2017 19:00:00 8,1 3,0 13 7 24 13 NE 1023,5 10 0 0,0
15.11.2017 18:00:00 9,4 2,7 18 10 29 16 ENE 1023,3 10 7 0,0
15.11.2017 17:00:00 11,1 3,1 21 11 31 17 NE 1023,6 10 60 0,0
15.11.2017 16:00:00 12,4 2,8 21 11 34 18 NE 1023,8 10 60 0,0
15.11.2017 15:00:00 12,6 2,2 21 11 31 17 NE 1023,7 10 60 0,0
15.11.2017 14:00:00 11,8 2,0 18 10 33 18 E 1023,9 10 51 0,0
15.11.2017 13:00:00 10,4 3,4 21 11 29 16 ENE 1024,8 10 49 0,0
15.11.2017 12:00:00 8,1 3,5 18 10 29 16 ENE 1025,5 10 13 0,0
15.11.2017 11:00:00 7,3 3,7 16 9 25 14 ENE 1025,9 10 60 0,0
15.11.2017 10:00:00 5,8 3,0 15 8 23 13 ENE 1026,1 10 60 0,0
15.11.2017 09:00:00 - - - - - - - - - - -
15.11.2017 08:00:00 - - - - - - - - - - -
15.11.2017 07:00:00 - - - - - - - - - - -
15.11.2017 06:00:00 - - - - - - - - - - -
15.11.2017 05:00:00 - - - - - - - - - - -
15.11.2017 04:00:00 2,1 1,1 5 3 10 5 ENE 1027,0 7 0 0,0
15.11.2017 03:00:00 1,6 0,3 9 5 10 6 E 1027,3 7 0 0,0
15.11.2017 02:00:00 2,6 0,7 5 3 8 4 ENE 1027,4 10 0 0,0
15.11.2017 01:00:00 3,1 1,0 5 3 10 5 NE 1027,5 10 0 0,0
15.11.2017 00:00:00 3,4 1,0 8 4 11 6 E 1027,8 10 0 0,0
14.11.2017 23:00:00 3,9 0,9 11 6 11 6 E 1027,7 10 0 0,0
14.11.2017 22:00:00 4,9 1,2 9 5 14 8 E 1027,9 20 0 0,0
14.11.2017 21:00:00 5,5 1,4 13 7 14 8 ENE 1027,9 10 0 0,0
14.11.2017 20:00:00 5,8 1,3 9 5 12 7 NE 1028,0 30 0 0,0
14.11.2017 19:00:00 6,9 1,4 9 5 10 6 NE 1027,8 10 0 0,0
14.11.2017 18:00:00 8,2 1,8 8 4 9 5 NNE 1027,5 10 8 0,0
14.11.2017 17:00:00 9,8 2,9 8 4 13 7 N 1027,4 10 60 0,0
14.11.2017 16:00:00 10,8 2,9 9 5 16 9 N 1027,6 10 60 0,0
14.11.2017 15:00:00 10,6 2,4 8 4 17 9 NNE 1027,8 10 60 0,0
14.11.2017 14:00:00 10,1 2,4 11 6 16 9 NNW 1028,2 10 60 0,0
14.11.2017 13:00:00 9,8 2,9 5 3 10 6 - 1028,8 10 60 0,0
14.11.2017 12:00:00 9,1 3,7 7 4 12 6 ENE 1029,4 42 60 0,0
14.11.2017 11:00:00 7,5 3,7 8 4 10 6 NE 1029,6 10 60 0,2
14.11.2017 10:00:00 5,8 3,1 5 3 9 5 ENE 1029,6 10 60 0,0
14.11.2017 09:00:00 2,5 1,2 5 3 10 5 ENE 1029,2 10 31 0,0
14.11.2017 08:00:00 1,0 -0,5 9 5 11 6 NE 1028,8 10 0 0,0
14.11.2017 07:00:00 0,9 -0,6 9 5 12 7 NE 1028,3 10 0 0,0
14.11.2017 06:00:00 0,8 -1,0 8 4 10 5 NE 1028,0 10 0 0,0
14.11.2017 05:00:00 1,6 -0,3 9 5 13 7 NE 1028,0 10 0 0,0
14.11.2017 04:00:00 2,0 -0,1 9 5 15 8 NE 1027,9 10 - -
14.11.2017 03:00:00 3,0 0,7 11 6 16 9 NE 1028,1 10 0 0,0
14.11.2017 02:00:00 3,3 1,0 11 6 14 8 NNE 1028,1 10 0 0,0
14.11.2017 01:00:00 4,6 1,8 10 5 16 9 NNE 1028,5 47 0 0,0
14.11.2017 00:00:00 5,5 2,0 12 7 19 10 N 1028,5 53 0 0,0
13.11.2017 23:00:00 6,0 1,9 13 7 20 11 NNE 1028,7 10 0 0,0
13.11.2017 22:00:00 6,2 2,1 11 6 18 10 N 1028,5 10 0 0,0
13.11.2017 21:00:00 6,9 2,4 13 7 19 10 N 1028,2 10 0 0,0
13.11.2017 20:00:00 7,2 3,1 13 7 19 10 N 1028,1 10 0 0,0
13.11.2017 19:00:00 7,1 2,6 11 6 14 8 N 1027,4 10 0 0,0
13.11.2017 18:00:00 8,0 2,9 11 6 24 13 N 1026,9 10 0 0,0
13.11.2017 17:00:00 9,4 2,5 18 10 29 16 N 1026,5 10 24 0,0
13.11.2017 16:00:00 10,7 2,5 17 9 27 15 N 1026,2 56 50 0,0
13.11.2017 15:00:00 10,9 2,7 16 9 27 15 N 1026,2 10 60 0,0
13.11.2017 14:00:00 10,9 3,2 18 10 31 17 N 1026,5 10 60 0,0
13.11.2017 13:00:00 10,3 3,1 19 10 30 16 N 1026,7 53 60 0,0
13.11.2017 12:00:00 9,6 3,6 16 9 29 16 N 1027,1 10 60 0,0
13.11.2017 11:00:00 8,2 3,0 18 10 29 16 N 1026,9 10 60 0,0
13.11.2017 10:00:00 6,9 2,4 18 10 29 16 N 1026,7 10 60 0,0
13.11.2017 09:00:00 5,6 2,1 19 10 29 15 N 1026,3 50 32 0,0
13.11.2017 08:00:00 4,8 1,6 16 9 29 15 N 1025,7 10 0 0,0
13.11.2017 07:00:00 5,0 1,8 18 10 29 15 N 1025,1 10 0 0,0
13.11.2017 06:00:00 5,6 2,1 21 11 30 16 N 1024,5 10 0 0,0
13.11.2017 05:00:00 6,1 2,5 21 11 34 19 N 1024,1 60 0 0,0
13.11.2017 04:00:00 6,7 2,9 24 13 37 20 N 1024,0 10 0 0,0
13.11.2017 03:00:00 7,4 3,6 29 15 40 22 NNW 1023,7 60 0 0,0
13.11.2017 02:00:00 7,4 3,6 25 14 38 21 NNW 1023,5 60 0 0,0
13.11.2017 01:00:00 7,6 4,2 26 14 39 21 NNW 1023,1 10 0 0,0
13.11.2017 00:00:00 7,7 3,9 29 15 41 22 N 1022,4 60 0 0,0
12.11.2017 23:00:00 8,3 3,9 31 17 46 25 NNW 1021,7 10 0 0,0
12.11.2017 22:00:00 8,8 3,8 29 16 40 22 NNW 1020,9 10 0 0,0
12.11.2017 21:00:00 8,9 3,7 21 11 45 25 N 1020,1 60 0 0,0
12.11.2017 20:00:00 9,8 3,5 35 19 64 35 N 1019,3 60 0 0,0
12.11.2017 19:00:00 11,0 4,2 31 17 43 23 NNW 1017,8 60 0 0,0
12.11.2017 18:00:00 10,5 4,6 28 15 58 32 N 1016,9 10 3 0,0
12.11.2017 17:00:00 12,9 7,8 34 18 51 27 NNW 1015,4 59 20 0,0
12.11.2017 16:00:00 13,9 10,5 31 17 49 27 NNW 1014,8 10 43 0,0
12.11.2017 15:00:00 14,9 12,6 34 18 57 31 WNW 1014,1 10 29 0,0
12.11.2017 14:00:00 15,0 13,2 35 19 61 33 WNW 1014,3 10 21 0,0
12.11.2017 13:00:00 14,8 13,2 34 18 55 30 WNW 1015,1 10 9 0,4
12.11.2017 12:00:00 15,2 12,7 34 18 47 26 W 1015,6 10 11 0,0
12.11.2017 11:00:00 14,5 12,5 36 19 54 29 WNW 1016,0 46 4 0,0
12.11.2017 10:00:00 14,4 12,1 29 16 43 23 W 1016,3 10 12 0,2
12.11.2017 09:00:00 14,1 11,6 24 13 47 26 W 1016,4 35 8 0,0
12.11.2017 08:00:00 13,8 12,0 23 12 37 20 W 1017,2 19 0 0,0
12.11.2017 07:00:00 13,5 11,9 22 12 37 20 W 1017,7 10 0 0,0
12.11.2017 06:00:00 13,3 11,5 25 14 40 22 W 1018,2 60 0 0,0
12.11.2017 05:00:00 13,1 11,2 18 10 36 19 W 1018,3 10 0 0,0
12.11.2017 04:00:00 13,5 11,7 22 12 36 19 W 1018,8 10 0 0,0
12.11.2017 03:00:00 13,0 11,6 30 16 45 24 W 1019,2 21 0 0,2
12.11.2017 02:00:00 13,4 12,0 22 12 40 21 W 1019,7 10 0 0,4
12.11.2017 01:00:00 13,6 12,2 23 13 36 19 W 1020,3 15 0 0,0
12.11.2017 00:00:00 13,1 11,8 22 12 40 22 WNW 1021,0 10 0 0,0
11.11.2017 23:00:00 13,2 11,9 29 16 48 26 WNW 1021,4 10 0 0,2
11.11.2017 22:00:00 13,4 12,0 26 14 42 23 WNW 1021,6 10 0 0,0
11.11.2017 21:00:00 13,6 11,6 28 15 54 29 WNW 1021,5 10 0 0,0
11.11.2017 20:00:00 13,4 11,6 39 21 53 29 WNW 1021,7 10 0 0,0
11.11.2017 19:00:00 13,5 11,9 31 17 49 26 W 1021,6 10 0 0,0
11.11.2017 18:00:00 13,6 12,3 31 17 53 29 W 1021,5 10 0 0,0

tt = Température de l'air
td = dewpoint
ff = Vitesse du vent
fx = gusts
dd = Direction du vent
ppp = reduced air pressure
vv = visibility
sd = Ensoleillement
rr = Quantités de précipitations

stations d'obs. à proximité